Sigfox identifier Datetime Temperature Humidity SNR
003A8828 2019-06-03 16:12:26 17.1 46 14.3
003A8828 2019-06-03 15:06:44 16.3 45 14.5
003A8828 2019-06-03 10:43:41 12.1 42 14.4
003A8828 2019-06-03 09:37:55 11.2 41 14.5
003A8828 2019-06-03 08:32:11 11 39 14.6
003A8828 2019-06-03 07:26:26 11.2 39 14.5
003A8828 2019-06-03 06:20:40 11.9 38 14.6
003A8828 2019-06-03 05:14:55 12.8 38 14.6
003A8828 2019-06-03 04:09:14 13.8 39 14.6
003A8828 2019-06-03 03:03:29 14.7 39 14.7
003A8828 2019-06-03 01:57:43 15.7 40 14.8
003A8828 2019-06-03 00:51:59 16.5 40 14.8
003A8828 2019-06-02 23:46:16 17.2 41 14.9
003A8828 2019-06-02 22:40:30 17.5 42 14.8
003A8828 2019-06-02 21:34:47 17.4 42 14.9
003A8828 2019-06-02 20:29:03 17 43 14.9
003A8828 2019-06-02 19:23:19 16.3 42 14.8
003A8828 2019-06-02 18:17:38 15.3 41 14.8
003A8828 2019-06-02 17:11:48 14.4 40 14.8
003A8828 2019-06-02 16:06:03 13.7 39 14.7
003A8828 2019-06-02 15:00:17 13.2 38 14.7
003A8828 2019-06-02 13:54:33 12.9 38 14.9
003A8828 2019-06-02 12:48:50 12.9 37 15
003A8828 2019-06-02 11:43:05 12.9 37 15.1
003A8828 2019-06-02 10:37:21 12.9 37 15
003A8828 2019-06-02 09:31:35 12.9 37 14.9
003A8828 2019-06-02 08:25:49 12.9 36 14.9
003A8828 2019-06-02 07:20:03 13.1 36 15
003A8828 2019-06-02 06:14:17 13.3 36 14.8
003A8828 2019-06-02 05:08:30 13.8 36 14.7
003A8828 2019-06-02 04:02:42 14 36 14.6
003A8828 2019-06-02 02:56:55 14.5 35 14.6
003A8828 2019-06-02 01:51:10 15.1 35 14.6
003A8828 2019-06-02 00:45:24 15.9 35 14.7
003A8828 2019-06-01 23:39:41 16.5 36 14.7
003A8828 2019-06-01 22:33:55 17.2 36 14.7
003A8828 2019-06-01 21:28:09 17.9 36 15.1
003A8828 2019-06-01 20:22:26 18.5 37 15
003A8828 2019-06-01 19:16:43 18.8 37 14.9
003A8828 2019-06-01 18:10:58 18.8 37 17.7
003A8828 2019-06-01 17:05:16 18.7 37 18.9
003A8828 2019-06-01 15:59:33 18.4 37 19.3
003A8828 2019-06-01 14:53:48 18 37 20.1
003A8828 2019-06-01 13:48:04 17.7 36 20.9
003A8828 2019-06-01 12:42:19 17.6 36 21.5
003A8828 2019-06-01 11:36:34 17.6 35 22.6
003A8828 2019-06-01 10:30:50 18 35 23.1
003A8828 2019-06-01 09:25:06 18.5 35 23.7
003A8828 2019-06-01 08:19:23 18.9 35 24
003A8828 2019-06-01 07:13:41 18.9 35 24.3
003A8828 2019-06-01 06:07:59 18.9 35 24.9
003A8828 2019-06-01 05:02:17 19 35 25.4
003A8828 2019-06-01 03:56:35 19 35 25.9
003A8828 2019-06-01 02:50:53 19.1 35 26.3
003A8828 2019-06-01 01:45:11 19.1 35 26.7
003A8828 2019-06-01 00:39:28 19.3 36 26.9
003A8828 2019-05-31 23:33:46 19.5 36 27.1
003A8828 2019-05-31 22:28:02 19.8 36 27.3
003A8828 2019-05-31 21:22:21 20 37 27.6
003A8828 2019-05-31 20:16:37 20.2 38 27.7
003A8828 2019-05-31 19:10:53 20.4 38 27.8
003A8828 2019-05-31 18:05:09 20.6 39 28
003A8828 2019-05-31 16:59:27 21.1 40 28.2
003A8828 2019-05-31 15:53:43 21 40 28.4
003A8828 2019-05-31 14:47:56 21 40 28.5
003A8828 2019-05-31 13:42:10 21 40 28.4
003A8828 2019-05-31 12:36:25 21 40 28.4
003A8828 2019-05-31 11:30:42 20.8 40 28.5
003A8828 2019-05-31 10:24:59 20.8 40 28.6
003A8828 2019-05-31 09:19:16 20.6 40 28.7
003A8828 2019-05-31 08:13:34 20.6 40 28.6
003A8828 2019-05-31 07:07:50 20.6 40 28.6
003A8828 2019-05-31 06:02:07 20.6 40 28.6
003A8828 2019-05-31 04:56:23 20.6 40 28.8
003A8828 2019-05-31 03:50:40 20.6 40 28.9
003A8828 2019-05-31 02:44:58 20.5 41 28.8
003A8828 2019-05-31 01:39:17 20.5 41 28.8
003A8828 2019-05-31 00:33:36 20.4 41 28.8
003A8828 2019-05-30 23:27:54 20.4 41 28.8
003A8828 2019-05-30 22:22:13 20.4 42 28.7
003A8828 2019-05-30 21:16:29 20.3 42 28.7
003A8828 2019-05-30 20:10:46 20.4 42 28.7
003A8828 2019-05-30 19:05:02 20.3 42 28.8
003A8828 2019-05-30 17:59:19 20.4 42 28.7
003A8828 2019-05-30 16:53:36 20.4 43 28.8
003A8828 2019-05-30 15:47:52 20.4 43 29
003A8828 2019-05-30 14:42:08 20.5 43 29
003A8828 2019-05-30 13:36:22 20.6 44 29
003A8828 2019-05-30 12:30:37 20.6 44 28.9
003A8828 2019-05-30 11:24:53 20.6 44 28.9
003A8828 2019-05-30 10:19:08 20.6 44 28.9
003A8828 2019-05-30 09:13:24 20.6 45 29
003A8828 2019-05-30 08:07:38 20.7 45 29
003A8828 2019-05-30 07:01:53 20.8 45 28.9
003A8828 2019-05-30 05:56:08 20.8 46 28.9
003A8828 2019-05-30 04:50:22 20.8 46 28.9
003A8828 2019-05-30 03:44:39 20.8 46 28.9
003A8828 2019-05-30 02:38:55 20.9 46 28.9
003A8828 2019-05-30 01:33:12 21 47 28.8
003A8828 2019-05-30 00:27:26 21 47 28.8
003A8828 2019-05-29 23:21:38 21 47 28.8
003A8828 2019-05-29 22:15:54 21 48 28.8
003A8828 2019-05-29 21:10:09 21 48 28.8
003A8828 2019-05-29 20:04:23 21.1 48 28.7
003A8828 2019-05-29 18:58:38 21.2 48 28.8
003A8828 2019-05-29 17:52:53 21.3 48 28.9
003A8828 2019-05-29 16:47:09 21.2 48 28.7
003A8828 2019-05-29 15:41:24 21.1 48 28.5
003A8828 2019-05-29 14:35:40 21 47 28.2
003A8828 2019-05-29 13:29:56 21 47 28
003A8828 2019-05-29 12:24:12 21 47 27.8
003A8828 2019-05-29 11:18:27 21 47 27.5
003A8828 2019-05-29 10:12:42 21 46 27.7
003A8828 2019-05-29 09:06:56 21 46 27.4
003A8828 2019-05-29 08:01:09 21 46 27.2
003A8828 2019-05-29 06:55:23 21 46 27.1
003A8828 2019-05-29 05:49:39 21.1 46 26.8
003A8828 2019-05-29 04:43:52 21 46 26.6
003A8828 2019-05-29 03:38:06 21.1 46 26.3
003A8828 2019-05-29 02:32:21 21.1 46 26
003A8828 2019-05-29 01:26:35 21.1 46 25.8
003A8828 2019-05-29 00:20:50 21.2 46 25.3
003A8828 2019-05-28 23:15:04 21.2 46 24.9
003A8828 2019-05-28 22:09:21 21.2 46 24.7
003A8828 2019-05-28 21:03:35 21.2 46 24.4
003A8828 2019-05-28 19:57:48 21.2 45 23.8
003A8828 2019-05-28 18:52:04 21.2 45 23.2
003A8828 2019-05-28 17:46:18 21.2 45 22.5
003A8828 2019-05-28 16:40:32 21 45 22.4
003A8828 2019-05-28 15:34:46 21 45 21.4
003A8828 2019-05-28 14:29:00 21 45 19.5
003A8828 2019-05-28 12:17:29 20.8 45 19.8
003A8828 2019-05-28 11:11:45 20.9 44 20
003A8828 2019-05-28 10:05:56 20.9 44 20.3
003A8828 2019-05-28 09:00:12 20.9 44 20.5
003A8828 2019-05-28 06:48:40 21 44 20.8
003A8828 2019-05-28 05:42:55 21 44 21.1
003A8828 2019-05-28 04:37:10 21 45 16.9
003A8828 2019-05-28 02:25:45 21 45 17.2
003A8828 2019-05-28 01:19:56 21 45 17.6
003A8828 2019-05-28 00:14:14 21 45 18
003A8828 2019-05-27 23:08:27 21 45 18.4
003A8828 2019-05-27 22:02:47 21.1 45 18.9
003A8828 2019-05-27 20:56:58 21 45 19.5
003A8828 2019-05-27 19:51:14 21.2 45 20.3
003A8828 2019-05-27 17:39:40 21.4 46 21.4
003A8828 2019-05-27 16:33:56 21.5 46 23.1
003A8828 2019-05-27 15:28:07 21.6 50 22.8
003A8828 2019-05-27 15:26:40 21.2 59 0